User: anonymous   Login
Location: Unspecified
(0.0000°N, 0.0000°E)
Time: 07:57:33
(UTC+00:00)
Language:

GALILEO 10 (206) - Orbit

View from above orbital plane
View from above orbital plane
View from above satellite
View from above satellite

Ground track
Ground track

The orbit data is extracted from the following two-line orbital elements,

1 40890U 15045B   17142.42740319 -.00000032 +00000-0 +00000-0 0  9997
2 40890 057.0335 312.8265 0001717 059.5095 300.4975 01.70474939010566
Epoch (UTC): 22 May 2017 10:15:27
Eccentricity: 0.0001717
inclination: 57.0335°
perigee height: 23217 km
apogee height: 23227 km
right ascension of ascending node: 312.8265°
argument of perigee: 59.5095°
revolutions per day: 1.70474939
mean anomaly at epoch: 300.4975°
orbit number at epoch: 1056

The dashed part of the orbit path shows where the satellite is in the earth's shadow,  

DLR